When you browse on this site, cookies collect data to enhance your experience and personalize the content and advertising you see.
Visit our Privacy Policy to learn more. By continuing to use the site, you agree to this use of cookies and data.
  • In Portugal
  • List of Countries
  • For 7 days
  • Water Temperature
  • Satellite Maps
  • Weather Map
  • Weather Widgets
  • user-avatar
    Login

    Hourly Weather Kashische

    Today, 21 April, Sunday

    Time Temperature Precipitation Wind Pressure Humidity
    00:00 +5°C° 0.2 mm 3 mps 764 mmHg 67%
    01:00 +4°C° 0.2 mm 3 mps 764 mmHg 71%
    02:00 +5°C° 0 mm 2 mps 764 mmHg 81%
    03:00 +4°C° 0.1 mm 2 mps 764 mmHg 80%
    04:00 +3°C° 0.1 mm 3 mps 764 mmHg 79%
    05:00 +3°C° 0.1 mm 3 mps 764 mmHg 78%
    06:00 +4°C° 0 mm 3 mps 764 mmHg 74%
    07:00 +5°C° 0 mm 3 mps 764 mmHg 70%
    08:00 +7°C° 0 mm 3 mps 765 mmHg 64%
    09:00 +9°C° 0 mm 3 mps 765 mmHg 57%
    10:00 +10°C° 0 mm 3 mps 765 mmHg 50%
    11:00 +12°C° 0 mm 3 mps 765 mmHg 43%
    12:00 +13°C° 0 mm 3 mps 765 mmHg 41%
    13:00 +13°C° 0 mm 3 mps 765 mmHg 38%
    14:00 +14°C° 0 mm 3 mps 765 mmHg 36%
    15:00 +14°C° 0 mm 3 mps 765 mmHg 36%
    16:00 +15°C° 0 mm 2 mps 765 mmHg 37%
    17:00 +15°C° 0 mm 2 mps 764 mmHg 37%
    18:00 +13°C° 0 mm 2 mps 765 mmHg 45%
    19:00 +12°C° 0 mm 2 mps 765 mmHg 52%
    20:00 +9°C° 0 mm 2 mps 765 mmHg 59%
    21:00 +8°C° 0 mm 2 mps 765 mmHg 62%
    22:00 +8°C° 0 mm 2 mps 766 mmHg 64%
    23:00 +8°C° 0 mm 1 mps 766 mmHg 67%

    Tomorrow, 22 April, Monday

    Time Temperature Precipitation Wind Pressure Humidity
    00:00 +8°C° 0 mm 1 mps 766 mmHg 69%
    01:00 +7°C° 0 mm 1 mps 766 mmHg 71%
    02:00 +7°C° 0 mm 1 mps 766 mmHg 73%
    03:00 +7°C° 0 mm 1 mps 766 mmHg 75%
    04:00 +7°C° 0 mm 1 mps 766 mmHg 77%
    05:00 +6°C° 0 mm 1 mps 767 mmHg 78%
    06:00 +9°C° 0 mm 1 mps 767 mmHg 71%
    07:00 +11°C° 0 mm 1 mps 767 mmHg 64%
    08:00 +13°C° 0 mm 1 mps 767 mmHg 57%
    09:00 +14°C° 0 mm 1 mps 767 mmHg 50%
    10:00 +16°C° 0 mm 2 mps 767 mmHg 43%
    11:00 +18°C° 0 mm 2 mps 767 mmHg 37%
    12:00 +18°C° 0 mm 2 mps 767 mmHg 35%
    13:00 +19°C° 0 mm 2 mps 767 mmHg 33%
    14:00 +19°C° 0 mm 2 mps 767 mmHg 31%
    15:00 +19°C° 0 mm 2 mps 767 mmHg 33%
    16:00 +19°C° 0 mm 2 mps 767 mmHg 34%
    17:00 +18°C° 0 mm 2 mps 767 mmHg 36%
    18:00 +16°C° 0 mm 2 mps 767 mmHg 42%
    19:00 +15°C° 0 mm 2 mps 767 mmHg 49%
    20:00 +13°C° 0 mm 2 mps 767 mmHg 56%
    21:00 +12°C° 0 mm 2 mps 767 mmHg 58%
    22:00 +10°C° 0 mm 2 mps 768 mmHg 60%
    23:00 +9°C° 0 mm 2 mps 768 mmHg 62%

    Day after tomorrow, 23 April, Tuesday

    Time Temperature Precipitation Wind Pressure Humidity
    00:00 +9°C° 0 mm 2 mps 768 mmHg 63%
    01:00 +9°C° 0 mm 1 mps 768 mmHg 64%
    02:00 +9°C° 0 mm 1 mps 769 mmHg 65%
    03:00 +9°C° 0 mm 1 mps 769 mmHg 66%
    04:00 +8°C° 0 mm 1 mps 769 mmHg 68%
    05:00 +8°C° 0 mm 1 mps 769 mmHg 69%
    06:00 +10°C° 0 mm 1 mps 769 mmHg 63%
    07:00 +12°C° 0 mm 1 mps 769 mmHg 57%
    08:00 +14°C° 0 mm 1 mps 770 mmHg 51%
    09:00 +15°C° 0 mm 1 mps 769 mmHg 45%
    10:00 +17°C° 0 mm 2 mps 769 mmHg 39%
    11:00 +18°C° 0 mm 2 mps 769 mmHg 33%
    12:00 +19°C° 0 mm 2 mps 769 mmHg 32%
    13:00 +19°C° 0 mm 2 mps 769 mmHg 31%
    14:00 +20°C° 0 mm 2 mps 769 mmHg 30%
    15:00 +21°C° 0 mm 1 mps 768 mmHg 31%
    16:00 +20°C° 0 mm 1 mps 768 mmHg 32%
    17:00 +20°C° 0 mm 1 mps 768 mmHg 32%
    18:00 +18°C° 0 mm 1 mps 768 mmHg 38%
    19:00 +15°C° 0 mm 1 mps 768 mmHg 43%
    20:00 +13°C° 0 mm 1 mps 768 mmHg 49%
    21:00 +12°C° 0 mm 1 mps 768 mmHg 50%
    22:00 +12°C° 0 mm 1 mps 768 mmHg 52%
    23:00 +11°C° 0 mm 1 mps 769 mmHg 54%

    24 April, Wednesday

    Time Temperature Precipitation Wind Pressure Humidity
    00:00 +11°C° 0 mm 1 mps 769 mmHg 57%
    01:00 +10°C° 0 mm 1 mps 769 mmHg 59%
    02:00 +9°C° 0 mm 1 mps 769 mmHg 61%
    03:00 +9°C° 0 mm 1 mps 769 mmHg 63%
    04:00 +9°C° 0 mm 1 mps 769 mmHg 64%
    05:00 +8°C° 0 mm 0 mps 769 mmHg 66%
    06:00 +11°C° 0 mm 1 mps 769 mmHg 60%
    07:00 +13°C° 0 mm 1 mps 769 mmHg 54%
    08:00 +15°C° 0 mm 1 mps 769 mmHg 48%
    09:00 +18°C° 0 mm 1 mps 769 mmHg 43%
    10:00 +19°C° 0 mm 1 mps 769 mmHg 37%
    11:00 +20°C° 0 mm 2 mps 769 mmHg 32%
    12:00 +20°C° 0 mm 2 mps 768 mmHg 31%
    13:00 +21°C° 0 mm 2 mps 768 mmHg 31%
    14:00 +21°C° 0 mm 2 mps 768 mmHg 30%
    15:00 +21°C° 0 mm 2 mps 767 mmHg 31%
    16:00 +21°C° 0 mm 2 mps 767 mmHg 32%
    17:00 +21°C° 0 mm 2 mps 767 mmHg 33%
    18:00 +18°C° 0 mm 2 mps 767 mmHg 40%
    19:00 +16°C° 0 mm 2 mps 767 mmHg 47%
    20:00 +14°C° 0 mm 1 mps 767 mmHg 54%
    21:00 +14°C° 0 mm 1 mps 767 mmHg 57%
    22:00 +13°C° 0 mm 2 mps 767 mmHg 60%
    23:00 +12°C° 0 mm 2 mps 767 mmHg 63%

    25 April, Thursday

    Time Temperature Precipitation Wind Pressure Humidity
    00:00 +10°C° 0 mm 2 mps 767 mmHg 65%
    01:00 +10°C° 0 mm 2 mps 767 mmHg 66%
    02:00 +10°C° 0 mm 2 mps 767 mmHg 67%
    03:00 +9°C° 0 mm 2 mps 767 mmHg 68%
    04:00 +9°C° 0 mm 2 mps 767 mmHg 70%
    05:00 +9°C° 0 mm 2 mps 767 mmHg 71%
    06:00 +12°C° 0 mm 2 mps 766 mmHg 65%
    07:00 +13°C° 0 mm 3 mps 766 mmHg 58%
    08:00 +16°C° 0 mm 3 mps 766 mmHg 52%
    09:00 +17°C° 0 mm 4 mps 766 mmHg 47%
    10:00 +19°C° 0 mm 4 mps 765 mmHg 42%
    11:00 +20°C° 0 mm 5 mps 765 mmHg 37%
    12:00 +21°C° 0 mm 5 mps 765 mmHg 35%
    13:00 +21°C° 0 mm 5 mps 764 mmHg 34%
    14:00 +22°C° 0 mm 5 mps 764 mmHg 33%
    15:00 +21°C° 0 mm 4 mps 763 mmHg 36%
    16:00 +20°C° 0 mm 3 mps 763 mmHg 39%
    17:00 +20°C° 0 mm 3 mps 763 mmHg 42%
    18:00 +18°C° 0 mm 3 mps 762 mmHg 47%
    19:00 +17°C° 0 mm 2 mps 762 mmHg 52%
    20:00 +15°C° 0 mm 2 mps 762 mmHg 57%
    21:00 +15°C° 0 mm 2 mps 762 mmHg 59%
    22:00 +13°C° 0 mm 3 mps 762 mmHg 61%
    23:00 +13°C° 0 mm 3 mps 762 mmHg 63%

    26 April, Friday

    Time Temperature Precipitation Wind Pressure Humidity
    00:00 +12°C° 0 mm 3 mps 761 mmHg 65%
    01:00 +12°C° 0 mm 3 mps 761 mmHg 67%
    02:00 +12°C° 0 mm 2 mps 761 mmHg 70%
    03:00 +12°C° 0 mm 2 mps 761 mmHg 72%
    04:00 +10°C° 0 mm 2 mps 760 mmHg 74%
    05:00 +10°C° 0 mm 3 mps 760 mmHg 76%
    06:00 +12°C° 0 mm 3 mps 760 mmHg 70%
    07:00 +13°C° 0 mm 3 mps 759 mmHg 64%
    08:00 +16°C° 0 mm 3 mps 759 mmHg 59%
    09:00 +18°C° 0 mm 4 mps 759 mmHg 54%
    10:00 +19°C° 0 mm 4 mps 758 mmHg 49%
    11:00 +21°C° 0 mm 4 mps 758 mmHg 44%
    12:00 +22°C° 0 mm 4 mps 757 mmHg 43%
    13:00 +22°C° 0 mm 4 mps 757 mmHg 42%
    14:00 +23°C° 0 mm 4 mps 756 mmHg 41%
    15:00 +23°C° 0 mm 4 mps 756 mmHg 42%
    16:00 +24°C° 0 mm 3 mps 755 mmHg 43%
    17:00 +24°C° 0 mm 3 mps 755 mmHg 44%
    18:00 +21°C° 0 mm 2 mps 755 mmHg 51%
    19:00 +19°C° 0 mm 2 mps 755 mmHg 59%
    20:00 +18°C° 0 mm 1 mps 755 mmHg 66%
    21:00 +16°C° 0 mm 1 mps 754 mmHg 69%
    22:00 +15°C° 0 mm 1 mps 754 mmHg 72%
    23:00 +15°C° 0 mm 1 mps 754 mmHg 75%
    Show more